Lapse_Rate
5.8 5.7 5.6 5.7 5.9 5.3 5.4 5.2 5.3 5.8 6.8 7.0 7.9 7.2 6.7 6.9 6.2 6.3 6.6 6.6 6.6 6.7 6.3 6.7 6.7 6.7 6.9 6.7 6.4 6.1 6.3 6.5 5.9 5.3 6.0 4.2 4.4 5.0 5.5 5.7 3.7 1.4 0.5
5.9 5.8 5.9 5.8 5.7 5.2 5.1 5.5 6.1 6.5 6.4 7.9 6.5 6.9 6.4 6.2 6.0 6.4 6.7 6.3 6.9 6.7 6.5 6.8 6.6 6.9 6.8 7.0 7.0 6.2 6.3 6.1 5.9 4.9 5.1 4.0 3.6 5.1 5.4 5.7 5.3 1.7 2.8
6.3 5.9 5.5 5.4 5.3 5.1 5.1 5.5 6.0 6.7 7.0 6.4 7.4 6.8 6.2 5.6 6.2 6.3 6.1 6.2 5.9 5.7 5.6 5.8 6.3 6.6 6.5 7.0 7.2 6.3 6.0 6.6 5.7 5.2 5.0 3.9 3.3 5.5 5.8 6.1 5.3 4.1 4.4
6.4 5.9 5.4 5.1 5.5 5.2 5.2 5.8 6.5 6.7 6.8 7.0 6.9 6.3 6.0 5.6 5.9 5.9 5.6 5.3 4.9 4.9 4.9 5.0 5.6 6.1 6.5 6.7 7.0 6.2 6.2 6.0 5.9 5.4 5.6 3.8 4.2 5.8 6.0 6.2 4.7 4.3 3.8
6.2 5.7 5.7 5.9 6.0 5.9 5.8 5.9 6.1 6.1 6.5 6.6 6.2 6.3 5.9 5.9 5.8 5.8 5.0 4.7 4.5 4.7 4.3 4.7 5.7 6.4 7.1 6.5 6.7 5.6 5.8 6.0 5.9 5.5 5.0 3.5 5.4 6.0 6.1 6.4 4.4 5.4 3.8
5.8 5.6 6.6 6.6 6.9 6.7 6.7 6.7 7.0 6.7 6.7 5.1 5.9 6.3 6.0 5.6 5.8 5.7 5.4 4.4 4.2 4.1 4.1 4.5 6.0 7.1 7.6 6.2 6.2 6.2 6.0 5.6 4.8 4.3 4.4 3.6 5.2 5.6 6.0 6.7 6.5 5.9 5.5
5.6 6.6 7.2 7.0 7.3 6.9 7.7 7.4 7.1 7.0 6.1 4.6 5.1 5.9 5.8 5.4 5.7 5.4 4.6 4.5 4.1 3.1 3.2 3.9 5.5 6.6 7.5 6.7 6.9 6.5 5.9 4.9 2.5 3.3 3.1 4.5 5.0 5.1 6.5 7.2 6.2 6.0 3.0
5.5 6.2 6.9 6.7 6.1 5.6 5.8 5.9 6.1 7.2 6.9 4.4 4.6 5.1 5.5 5.1 5.2 5.1 4.6 4.1 3.9 3.0 2.7 2.8 3.0 5.1 5.2 5.3 5.2 4.6 4.6 3.8 2.4 1.3 2.4 2.0 3.6 6.8 6.3 5.6 4.5 3.0 2.5
5.6 6.1 6.4 5.2 4.3 3.8 3.8 3.9 5.2 5.4 4.1 3.8 3.9 4.2 5.0 5.0 4.8 5.0 4.1 4.0 4.2 3.3 2.4 2.5 3.1 3.2 3.6 3.4 3.2 3.0 3.2 2.2 1.4 1.7 2.4 3.4 4.2 4.2 3.9 3.6 3.8 2.6 2.3
5.6 5.5 5.4 4.8 3.1 2.5 2.1 2.2 3.4 3.7 2.7 2.5 3.5 3.5 4.4 4.7 4.6 4.4 3.6 3.3 3.3 3.1 2.6 1.9 2.6 2.7 3.0 2.2 2.5 2.3 2.9 1.8 3.1 3.5 3.8 2.9 3.5 3.1 3.1 4.0 5.2 1.6 1.3
5.1 4.2 3.9 3.1 3.0 1.7 0.7 1.1 1.2 1.5 1.7 3.5 5.0 4.6 3.2 3.6 4.3 5.1 3.2 2.2 3.0 2.5 2.7 3.3 2.1 1.7 1.0 0.7 1.4 2.2 2.1 3.8 3.1 3.6 1.7 1.1 0.6 -0.0 -0.6 0.4 2.6 2.3 2.4
4.2 3.1 2.4 1.7 1.7 1.4 -0.4 -0.2 0.3 0.4 0.5 0.9 2.4 3.5 3.8 3.1 3.4 3.7 3.3 2.1 2.6 1.2 2.2 2.2 1.4 0.7 0.1 -0.2 0.5 -0.2 0.8 1.0 1.5 1.0 0.5 -0.6 -1.4 -2.3 -3.3 -4.2 -3.6 -4.4 -3.2
3.6 2.6 1.7 1.1 0.5 -0.1 -1.1 -1.3 -0.1 0.5 1.1 1.4 2.1 2.2 3.6 3.3 2.6 3.0 3.1 2.1 1.3 0.9 1.2 0.8 0.3 -0.1 -0.2 -1.4 -1.2 -1.6 -1.6 -0.7 -0.9 -1.6 -1.9 -2.4 -3.0 -3.0 -2.3 -3.2 -3.8 -4.1 -6.3
3.3 2.4 1.3 -0.2 -0.7 -1.1 -0.9 -0.8 -0.1 0.7 1.4 1.2 1.1 1.5 3.1 2.8 1.7 1.7 1.7 1.6 1.4 1.4 -0.1 -2.1 -2.8 -2.2 -2.5 -3.1 -3.2 -3.1 -3.0 -2.3 -2.5 -2.5 -2.9 -2.6 -2.1 -2.1 -3.4 -3.2 -3.9 -3.9 -4.2
3.2 3.0 1.6 0.7 0.0 -0.9 -1.7 -2.0 -0.4 0.6 1.1 1.7 1.4 1.5 1.6 2.0 2.8 1.1 0.8 1.0 1.7 1.3 0.3 -0.9 -1.8 -2.4 -2.3 -1.3 -1.9 -3.0 -2.4 -2.1 -2.2 -2.3 -2.0 -1.9 -2.0 -2.6 -3.6 -3.9 -4.2 -3.8 -4.3
2.7 2.0 0.9 0.3 0.1 0.4 -0.1 0.2 0.8 0.3 0.9 1.7 1.6 1.0 0.9 0.7 0.6 1.4 0.9 0.9 1.3 1.2 -1.0 0.2 0.8 0.5 -0.0 -0.2 -1.3 -1.4 -2.6 -3.2 -2.8 -2.8 -3.0 -2.1 -2.6 -3.0 -3.1 -3.5 -3.4 -4.1 -4.5
1.7 2.0 0.7 0.3 -0.3 -1.0 -1.2 -0.5 0.7 0.9 1.2 1.2 0.7 1.0 0.6 0.2 -0.4 -0.1 0.7 -0.0 -0.2 -0.4 0.8 1.4 0.7 0.1 0.2 0.3 -0.3 -1.9 -3.1 -3.4 -2.9 -3.4 -3.2 -3.1 -2.8 -2.8 -3.0 -3.4 -3.4 -3.1 -3.0
0.4 -0.8 -1.2 -1.8 -1.8 -1.6 -1.4 -1.2 -1.7 -0.9 -1.0 -1.0 -0.1 0.0 -0.5 -0.4 -0.9 -1.0 -0.7 -0.6 -0.2 0.2 0.4 0.8 0.9 0.6 -0.3 -1.5 -1.5 -1.6 -1.3 -2.3 -3.4 -3.4 -3.5 -3.2 -2.7 -2.8 -3.1 -3.2 -3.0 -3.3 -4.0
-0.5 -1.8 -2.1 -1.9 -1.7 -1.9 -1.5 -1.9 -1.7 -1.1 -1.5 -1.8 -0.8 -0.4 -1.1 -0.3 -0.7 -1.1 -1.1 -1.2 -0.3 -0.2 0.1 -0.4 -0.4 -0.3 -0.4 -0.4 -0.6 -1.7 -2.7 -3.1 -3.3 -3.5 -3.5 -3.6 -3.8 -3.9 -3.7 -3.8 -4.2 -4.0 -3.2
-1.4 -3.2 -2.7 -1.7 -1.5 -1.3 -1.3 -2.0 -1.9 -2.2 -2.2 -2.1 -1.6 -1.7 -1.5 -1.3 -1.9 -1.6 -1.7 -1.6 -1.1 -1.1 -0.9 -1.0 -1.0 -1.4 -1.5 -1.3 -1.6 -1.6 -1.5 -1.5 -1.9 -2.5 -3.7 -4.1 -4.2 -3.1 -2.4 -2.2 -2.8 -3.3 -3.2
-2.9 -2.5 -2.9 -2.0 -1.7 -1.5 -1.3 -2.1 -2.1 -2.6 -2.6 -2.4 -2.5 -3.1 -2.3 -1.3 -1.5 -1.7 -1.5 -1.7 -2.0 -1.8 -2.1 -2.0 -2.2 -2.3 -2.0 -2.2 -2.2 -2.1 -2.2 -2.4 -2.1 -1.8 -1.8 -1.9 -2.0 -2.0 -1.8 -1.9 -1.9 -2.0 -1.9
-3.2 -2.7 -2.2 -1.9 -1.9 -1.6 -1.7 -1.7 -1.3 -2.9 -3.1 -2.7 -2.8 -2.3 -3.3 -2.5 -2.3 -2.3 -2.2 -2.4 -2.4 -2.0 -2.3 -2.7 -2.8 -2.9 -3.0 -3.1 -2.8 -2.7 -2.5 -2.5 -2.4 -2.2 -2.4 -2.3 -2.5 -2.7 -2.8 -2.8 -2.5 -2.2 -1.7
-3.0 -2.7 -2.2 -2.3 -2.0 -2.3 -1.7 -1.5 -1.6 -3.7 -3.6 -3.9 -3.7 -2.9 -3.2 -3.4 -3.8 -3.7 -3.5 -3.9 -3.0 -2.8 -2.0 -2.6 -3.1 -3.1 -2.8 -2.6 -2.7 -2.7 -2.6 -2.9 -2.4 -2.0 -2.5 -2.5 -2.5 -2.6 -2.6 -2.3 -2.2 -2.1 -2.1
-2.9 -2.8 -2.3 -2.4 -2.5 -2.3 -2.7 -3.9 -3.0 -2.8 -2.6 -3.8 -4.7 -4.5 -5.1 -4.4 -5.1 -6.3 -4.5 -4.7 -4.5 -3.4 -2.1 -2.1 -2.5 -3.0 -2.9 -2.8 -2.6 -2.7 -2.4 -1.3 -0.8 -1.4 -1.8 -3.0 -3.6 -3.1 -3.3 -3.2 -3.0 -3.4 -3.3
-2.9 -3.2 -3.7 -2.6 -3.7 -4.5 -4.7 -3.7 -3.7 -3.9 -3.5 -3.4 -4.3 -2.9 -4.5 -5.3 -3.7 -3.6 -3.9 -4.8 -5.2 -4.0 -3.5 -2.9 -2.5 -2.6 -2.6 -2.5 -2.4 -2.1 -1.9 -1.4 -0.9 -0.4 -0.3 -1.0 -2.1 -2.5 -3.1 -3.3 -3.3 -2.8 -3.3
-2.7 -2.9 -2.9 -3.0 -3.8 -4.0 -4.1 -4.9 -5.2 -5.1 -4.3 -4.2 -6.1 -4.7 -3.4 -5.3 -4.6 -3.7 -3.4 -3.9 -4.8 -4.4 -2.9 -2.5 -2.1 -1.8 -1.8 -1.9 -1.8 -1.1 -1.1 -1.2 -1.0 -0.6 -0.1 -0.2 -1.4 -2.3 -2.2 -3.0 -2.6 -3.3 -1.8
Wind_Speed
5 4 6 6 6 6 6 7 8 7 6 9 12 12 11 9 9 10 10 9 9 8 9 10 12 11 8 8 9 8 7 5 5 2 1 1 3 4 7 12 17 10 10
5 4 6 6 6 7 7 8 10 9 4 13 11 8 10 10 11 10 8 6 7 8 8 10 12 10 13 13 9 11 9 8 5 7 1 2 4 4 8 9 9 11 12
6 5 7 7 7 7 8 9 10 9 7 9 14 11 11 13 11 7 7 7 6 7 8 10 12 14 14 12 11 11 9 8 6 3 1 1 4 4 7 8 9 10 14
6 6 7 7 7 7 8 10 11 11 13 12 14 13 11 12 8 8 9 8 6 6 7 9 13 16 16 17 14 14 10 9 6 5 4 2 3 5 7 8 7 6 7
6 6 7 7 7 9 10 9 8 7 9 11 13 15 12 8 9 13 12 9 8 6 3 3 10 18 26 21 13 13 12 10 7 7 5 3 3 8 10 7 10 9 8
6 7 8 8 8 10 11 9 10 8 10 15 15 16 13 10 24 24 18 9 8 7 6 6 9 20 22 24 22 19 14 13 11 8 6 5 4 8 7 12 12 13 6
6 7 9 9 11 11 13 14 14 12 8 15 16 16 15 17 28 24 20 8 8 9 7 6 9 9 17 15 16 17 14 12 8 8 9 6 3 9 11 15 13 13 12
8 10 12 11 13 13 15 14 15 13 12 13 15 17 15 15 29 25 19 9 10 14 12 9 8 12 11 14 12 10 10 9 9 5 5 3 4 9 18 11 16 16 13
8 10 12 13 14 15 15 15 13 13 14 13 14 16 17 16 30 27 15 10 11 16 16 15 10 8 11 22 15 13 13 10 13 15 11 19 14 29 23 18 17 17 11
7 10 12 12 14 15 14 14 13 11 9 10 13 15 19 17 27 30 20 9 15 12 17 18 23 16 17 14 16 14 13 11 11 13 12 23 34 26 26 22 15 15 13
10 11 12 12 11 12 11 13 13 13 12 14 14 16 17 17 20 30 29 14 11 12 13 12 13 28 26 22 18 12 10 18 19 18 20 17 17 16 12 21 17 15 10
11 12 11 11 10 10 13 13 14 14 15 15 16 14 14 18 27 28 31 25 20 15 13 10 12 35 33 27 18 17 15 20 17 16 15 14 15 14 13 23 29 32 26
7 7 9 10 11 11 12 13 11 12 11 12 12 13 14 15 15 27 28 27 25 14 11 17 30 30 30 28 28 26 23 15 15 16 15 13 13 13 26 22 32 34 37
6 5 5 6 7 8 7 8 10 11 12 12 12 14 13 15 16 15 14 14 21 16 17 18 21 27 27 23 22 20 15 14 15 15 14 10 10 11 12 10 14 12 14
6 5 5 4 5 5 4 4 6 7 9 11 10 9 12 14 13 20 18 14 12 14 17 18 18 17 17 16 16 16 13 14 14 13 13 12 11 12 11 8 10 12 12
5 4 5 5 5 5 6 7 8 8 14 25 24 16 12 24 28 25 30 27 27 22 19 16 16 16 16 15 15 14 14 16 12 12 12 12 12 11 11 11 11 12 12
6 5 4 5 5 5 4 6 9 9 15 20 26 29 30 27 29 27 25 31 33 27 18 16 15 15 14 14 13 14 14 12 13 13 12 12 12 11 12 11 11 12 10
7 8 5 4 4 5 5 5 5 7 7 8 14 18 26 29 30 29 24 23 19 21 16 15 14 14 14 14 13 13 12 12 13 12 12 11 10 11 12 11 10 11 9
5 4 5 4 4 5 4 5 5 7 6 5 7 10 20 23 26 28 27 15 14 14 14 14 13 13 13 12 12 13 15 13 11 12 11 11 11 12 11 11 12 14 12
5 6 5 4 3 4 4 4 5 5 6 5 7 6 6 11 11 12 13 11 12 12 11 12 11 12 12 12 12 12 12 12 12 11 12 12 11 10 10 11 10 10 10
4 4 5 3 3 3 3 4 4 4 4 4 5 4 8 8 9 9 9 10 9 10 10 10 10 10 12 12 10 11 12 11 11 11 10 10 10 10 9 10 10 9 8
4 4 3 4 3 3 3 3 4 3 3 4 4 5 8 5 6 7 7 7 9 14 15 15 14 16 16 14 14 11 10 10 8 10 8 10 9 8 9 9 7 6 6
4 4 3 3 3 4 3 3 3 3 3 3 3 4 4 5 4 5 5 8 11 15 18 17 15 15 19 21 20 18 15 11 14 16 13 10 7 8 6 7 6 7 6
5 5 4 4 3 3 3 3 3 4 4 3 3 3 3 3 4 3 6 6 10 15 17 19 20 19 21 23 24 25 25 24 24 24 23 16 10 11 7 7 6 6 5
6 5 4 5 3 2 2 3 3 3 4 4 3 3 2 2 3 3 4 5 6 8 11 13 14 15 16 17 18 19 19 21 20 20 21 22 19 16 10 4 4 5 4
6 6 5 5 4 4 3 2 3 3 4 3 3 3 2 2 4 5 5 3 2 4 6 7 8 9 9 10 11 12 13 15 16 14 15 17 17 13 11 6 6 3 4
Wind_Direction
10 30 4 337 337 315 310 302 293 293 329 342 334 321 319 314 289 279 270 264 245 235 215 212 206 194 197 194 199 196 197 185 202 287 249 329 248 217 162 152 147 136 141
29 22 348 336 323 324 312 304 307 314 326 4 348 321 326 306 290 283 276 261 252 240 223 210 205 191 190 191 194 193 191 194 190 218 327 328 248 190 152 133 136 130 151
26 6 349 338 328 326 316 309 317 331 357 351 350 334 327 310 301 296 296 292 266 241 223 208 198 187 187 181 186 187 190 191 187 148 196 292 244 183 139 132 133 148 163
14 8 351 341 334 323 314 324 343 9 4 347 350 339 332 313 332 343 325 313 294 255 234 218 195 184 178 178 183 186 179 182 171 187 198 261 257 153 135 144 129 146 142
18 6 346 337 333 332 331 346 347 7 358 344 342 349 341 344 355 359 342 332 331 334 359 55 144 170 176 175 181 179 175 173 171 181 190 211 202 149 147 145 156 149 147
19 6 348 346 344 346 346 341 343 349 11 356 345 351 347 357 7 358 354 341 0 12 31 55 145 154 167 169 180 178 179 173 173 175 189 199 210 155 145 155 163 155 128
17 4 353 351 356 354 359 5 6 4 31 1 353 352 355 5 12 3 347 354 17 28 49 66 105 149 155 163 157 161 169 165 180 175 184 185 170 179 161 153 156 127 99
18 9 0 3 7 5 9 4 10 9 28 358 357 358 0 3 13 4 349 356 27 42 50 61 84 129 153 160 157 157 169 180 195 193 199 209 227 179 159 140 115 103 90
27 16 13 19 14 11 11 5 5 24 13 3 0 2 5 8 14 10 3 20 37 46 48 50 60 87 143 160 168 171 180 201 218 212 234 245 251 118 125 117 119 107 96
18 19 22 29 20 17 12 9 5 16 10 2 9 10 8 12 10 16 21 27 42 43 51 51 51 73 78 118 138 147 152 168 158 156 152 121 106 106 108 110 118 112 119
34 34 30 20 29 21 13 16 12 13 4 15 14 20 16 13 13 19 23 34 39 48 47 49 54 71 70 73 86 101 106 110 112 120 92 89 85 81 74 79 98 107 111
56 48 38 28 21 20 23 20 18 13 16 14 16 20 23 16 16 17 24 35 38 51 44 44 57 67 67 66 72 82 118 102 93 91 87 84 85 82 76 75 76 72 67
79 65 55 46 34 23 29 24 24 19 20 16 19 21 20 21 19 17 21 28 37 46 49 57 61 62 63 65 68 70 76 88 91 86 85 81 86 98 96 89 85 83 67
74 89 69 59 42 30 32 30 31 26 26 25 22 21 20 26 24 17 22 26 29 41 41 49 57 60 57 56 57 58 66 77 85 90 87 83 84 88 84 87 87 89 78
65 51 53 59 55 30 24 23 25 24 25 31 25 21 23 27 22 34 32 33 36 38 56 53 48 50 54 52 53 55 62 71 77 84 90 93 87 86 74 77 79 83 93
69 53 45 43 37 40 26 17 1 14 13 32 30 36 31 31 26 31 40 44 46 43 56 52 52 51 52 53 57 59 56 61 64 76 82 87 86 85 88 83 89 91 98
84 73 54 53 48 38 24 31 26 1 17 21 23 27 29 31 29 26 32 46 43 48 56 53 51 50 52 55 58 59 61 56 60 65 71 75 81 82 88 86 86 93 91
81 71 76 64 54 46 38 32 33 36 23 17 6 17 20 25 29 31 29 48 44 44 51 52 55 53 50 52 52 58 63 60 60 65 68 74 80 87 85 84 87 94 90
93 85 86 79 63 52 39 40 48 48 40 30 18 13 11 21 33 35 36 49 49 46 45 48 49 54 58 61 62 62 60 58 58 64 65 67 71 76 78 80 81 82 85
105 111 101 89 75 62 46 44 50 52 50 39 37 19 10 32 34 32 36 42 47 47 45 49 48 51 52 56 57 61 64 66 70 69 68 65 66 72 78 86 78 83 79
128 132 130 89 79 80 74 56 63 71 61 44 28 24 43 55 46 40 42 42 42 44 46 47 45 47 51 57 60 64 66 66 66 68 70 72 74 80 79 81 87 86 94
144 147 141 137 126 92 96 86 89 91 80 68 24 33 47 56 55 56 51 46 43 47 48 54 53 49 50 55 62 65 66 68 72 81 83 85 89 88 88 90 94 98 106
155 160 153 148 143 130 109 104 93 78 90 80 60 61 53 51 44 59 58 49 60 63 67 70 71 67 65 68 68 73 78 72 72 79 77 75 75 79 81 87 88 85 81
162 174 172 171 159 156 152 152 136 123 115 79 53 61 86 82 69 57 72 63 69 75 76 80 81 83 83 82 83 84 86 86 89 93 96 92 86 79 77 76 74 74 79
165 175 172 177 170 183 174 157 149 135 126 143 145 136 132 112 99 86 83 82 85 85 86 87 88 88 87 93 92 91 89 88 87 91 95 95 93 89 85 79 78 72 66
170 177 181 175 174 166 189 188 150 156 158 169 152 157 157 175 154 156 159 156 160 117 108 111 107 109 106 101 101 101 99 98 95 99 101 103 102 97 101 94 90 85 97